TimeCST,TemperatureF,Dew PointF,Humidity,Sea Level PressureIn,VisibilityMPH,Wind Direction,Wind SpeedMPH,Gust SpeedMPH,PrecipitationIn,Events,Conditions,WindDirDegrees,DateUTC
12:14 AM,1.4,-2.2,85,30.08,10.0,NNW,3.5,-,N/A,,Clear,340,2012-12-08 06:14:00
12:34 AM,1.4,-2.2,85,30.08,10.0,NNW,3.5,-,N/A,,Clear,340,2012-12-08 06:34:00
12:54 AM,1.4,-2.2,85,30.07,10.0,North,4.6,-,N/A,,Clear,350,2012-12-08 06:54:00
1:14 AM,1.4,-2.2,85,30.07,10.0,North,3.5,-,N/A,,Clear,350,2012-12-08 07:14:00
1:32 AM,1.4,-2.2,85,30.06,10.0,North,3.5,-,N/A,,Clear,360,2012-12-08 07:32:00
1:54 AM,1.4,-4.0,78,30.06,10.0,Calm,Calm,-,N/A,,Clear,0,2012-12-08 07:54:00
2:14 AM,-9999,-4.0,N/A,30.06,10.0,Calm,Calm,-,N/A,,Clear,0,2012-12-08 08:14:00
2:54 AM,-0.4,-5.8,78,30.06,10.0,Calm,Calm,-,N/A,,Clear,0,2012-12-08 08:54:00
3:14 AM,-0.4,-5.8,78,30.06,10.0,Calm,Calm,-,N/A,,Clear,0,2012-12-08 09:14:00
3:33 AM,-0.4,-5.8,78,30.06,10.0,Calm,Calm,-,N/A,,Clear,0,2012-12-08 09:33:00
3:54 AM,1.4,-2.2,85,30.05,10.0,ESE,3.5,-,N/A,,Clear,110,2012-12-08 09:54:00
4:14 AM,3.2,-0.4,85,30.05,10.0,ESE,4.6,-,N/A,,Clear,120,2012-12-08 10:14:00
4:33 AM,6.8,1.4,79,30.05,10.0,ESE,6.9,-,N/A,,Clear,110,2012-12-08 10:33:00
5:14 AM,8.6,3.2,79,30.04,10.0,ESE,9.2,-,N/A,,Clear,110,2012-12-08 11:14:00
5:33 AM,8.6,3.2,79,30.03,10.0,ESE,6.9,-,N/A,,Clear,110,2012-12-08 11:33:00
5:54 AM,8.6,3.2,79,30.03,10.0,ESE,8.1,-,N/A,,Scattered Clouds,110,2012-12-08 11:54:00
6:14 AM,6.8,3.2,85,30.03,10.0,ESE,6.9,-,N/A,,Scattered Clouds,110,2012-12-08 12:14:00
6:34 AM,6.8,1.4,79,30.02,10.0,ESE,8.1,-,N/A,,Clear,110,2012-12-08 12:34:00
6:54 AM,6.8,3.2,85,30.02,10.0,ESE,9.2,-,N/A,,Mostly Cloudy,110,2012-12-08 12:54:00
7:14 AM,6.8,1.4,79,30.02,10.0,ESE,8.1,-,N/A,,Overcast,110,2012-12-08 13:14:00
7:34 AM,6.8,3.2,85,30.02,10.0,ESE,8.1,-,N/A,,Overcast,110,2012-12-08 13:34:00
7:54 AM,8.6,3.2,79,30.02,10.0,East,8.1,-,N/A,,Overcast,100,2012-12-08 13:54:00
8:13 AM,8.6,3.2,79,30.01,10.0,ESE,9.2,-,N/A,,Overcast,110,2012-12-08 14:13:00
8:34 AM,8.6,3.2,79,30.01,10.0,East,9.2,-,N/A,,Overcast,90,2012-12-08 14:34:00
8:54 AM,8.6,3.2,79,30.01,10.0,East,9.2,-,N/A,,Mostly Cloudy,90,2012-12-08 14:54:00
9:13 AM,8.6,5.0,85,30.02,10.0,East,6.9,-,N/A,,Mostly Cloudy,100,2012-12-08 15:13:00
9:34 AM,10.4,6.8,85,30.02,3.0,East,6.9,-,N/A,Snow,Light Snow,100,2012-12-08 15:34:00
9:54 AM,10.4,6.8,85,30.02,1.2,East,8.1,-,N/A,Snow,Light Snow,90,2012-12-08 15:54:00
10:14 AM,10.4,6.8,85,30.02,1.8,East,8.1,-,N/A,Snow,Light Snow,90,2012-12-08 16:14:00
10:34 AM,12.2,6.8,79,30.02,3.0,East,8.1,-,N/A,Snow,Light Snow,80,2012-12-08 16:34:00
10:54 AM,12.2,8.6,85,30.02,1.5,East,8.1,-,N/A,Snow,Light Snow,80,2012-12-08 16:54:00
11:14 AM,12.2,8.6,85,30.01,1.0,East,10.4,-,N/A,Snow,Light Snow,80,2012-12-08 17:14:00
11:34 AM,12.2,8.6,85,30.01,1.0,East,9.2,-,N/A,Snow,Light Snow,80,2012-12-08 17:34:00
11:54 AM,12.2,8.6,85,30.00,0.8,East,10.4,-,N/A,Snow,Light Snow,80,2012-12-08 17:54:00
12:14 PM,14.0,10.4,86,30.00,1.0,East,9.2,-,N/A,Snow,Light Snow,80,2012-12-08 18:14:00
12:34 PM,14.0,10.4,86,29.99,0.8,East,8.1,-,N/A,Snow,Light Snow,90,2012-12-08 18:34:00
12:54 PM,14.0,10.4,86,29.99,0.8,East,9.2,-,N/A,Snow,Light Snow,90,2012-12-08 18:54:00
1:14 PM,15.8,10.4,79,29.99,0.8,East,8.1,-,N/A,Snow,Light Snow,90,2012-12-08 19:14:00
1:34 PM,15.8,10.4,79,29.99,1.2,East,6.9,-,N/A,Snow,Light Snow,80,2012-12-08 19:34:00
1:54 PM,15.8,10.4,79,29.99,1.0,East,9.2,-,N/A,Snow,Light Snow,80,2012-12-08 19:54:00
2:14 PM,15.8,10.4,79,29.99,1.2,East,9.2,-,0.01,Snow,Light Snow,80,2012-12-08 20:14:00
2:34 PM,15.8,10.4,79,29.99,1.0,ENE,9.2,-,0.01,Snow,Light Snow,70,2012-12-08 20:34:00
2:54 PM,15.8,12.2,86,29.99,1.2,ENE,9.2,-,0.01,Snow,Light Snow,70,2012-12-08 20:54:00
3:14 PM,15.8,12.2,86,29.99,0.5,ENE,8.1,-,N/A,Snow,Light Snow,60,2012-12-08 21:14:00
3:34 PM,15.8,12.2,86,29.99,1.8,ENE,9.2,-,N/A,Snow,Light Snow,70,2012-12-08 21:34:00
3:54 PM,15.8,12.2,86,30.00,1.8,ENE,9.2,-,N/A,Snow,Light Snow,60,2012-12-08 21:54:00
4:14 PM,15.8,12.2,86,30.00,1.5,NE,10.4,-,N/A,Snow,Light Snow,50,2012-12-08 22:14:00
4:33 PM,15.8,12.2,86,30.01,2.5,NE,9.2,-,N/A,Snow,Light Snow,40,2012-12-08 22:33:00
5:14 PM,15.8,12.2,86,30.03,5.0,NE,10.4,-,N/A,Snow,Light Snow,40,2012-12-08 23:14:00
5:33 PM,15.8,12.2,86,30.04,2.0,NNE,10.4,-,N/A,Snow,Light Snow,30,2012-12-08 23:33:00
5:54 PM,15.8,12.2,86,30.05,1.8,NNE,10.4,-,N/A,Snow,Light Snow,30,2012-12-08 23:54:00
6:14 PM,15.8,12.2,86,30.05,1.0,NNE,10.4,-,N/A,Snow,Snow,30,2012-12-09 00:14:00
6:33 PM,15.8,12.2,86,30.05,1.8,NNE,10.4,-,N/A,Snow,Light Snow,20,2012-12-09 00:33:00
6:54 PM,15.8,10.4,79,30.06,2.0,North,9.2,-,N/A,Snow,Light Snow,10,2012-12-09 00:54:00
7:14 PM,14.0,10.4,86,30.07,2.5,NNE,9.2,-,N/A,Snow,Light Snow,20,2012-12-09 01:14:00
7:34 PM,14.0,10.4,86,30.08,1.8,NNE,10.4,-,N/A,Snow,Light Snow,30,2012-12-09 01:34:00
7:54 PM,14.0,10.4,86,30.08,1.5,NNE,9.2,-,N/A,Snow,Light Snow,30,2012-12-09 01:54:00
8:14 PM,14.0,10.4,86,30.09,2.5,NNE,9.2,-,N/A,Snow,Light Snow,20,2012-12-09 02:14:00
8:34 PM,14.0,10.4,86,30.09,2.0,NNE,9.2,-,N/A,Snow,Light Snow,20,2012-12-09 02:34:00
8:54 PM,14.0,10.4,86,30.09,2.0,NNE,12.7,-,0.01,Snow,Light Snow,20,2012-12-09 02:54:00
9:14 PM,14.0,10.4,86,30.10,2.5,North,13.8,17.3,N/A,Snow,Light Snow,10,2012-12-09 03:14:00
9:34 PM,12.2,8.6,85,30.11,3.0,North,9.2,-,N/A,Snow,Light Snow,10,2012-12-09 03:34:00
9:54 PM,12.2,8.6,85,30.12,3.0,North,11.5,-,N/A,Snow,Light Snow,10,2012-12-09 03:54:00
10:14 PM,12.2,8.6,85,30.13,3.0,North,11.5,-,N/A,Snow,Light Snow,360,2012-12-09 04:14:00
10:34 PM,12.2,8.6,85,30.13,3.0,North,12.7,17.3,N/A,Snow,Light Snow,10,2012-12-09 04:34:00
10:54 PM,12.2,8.6,85,30.14,4.0,North,9.2,-,N/A,Snow,Light Snow,10,2012-12-09 04:54:00
11:14 PM,12.2,8.6,85,30.15,7.0,North,12.7,-,N/A,Snow,Light Snow,10,2012-12-09 05:14:00
11:34 PM,12.2,8.6,85,30.16,5.0,North,12.7,-,N/A,Snow,Light Snow,10,2012-12-09 05:34:00
11:54 PM,12.2,6.8,79,30.16,5.0,North,11.5,-,N/A,Snow,Light Snow,10,2012-12-09 05:54:00